Year,Month,Day,Hour,Minute,Value (Times are PST for temperature in C)
2015,06,09,00,00,12.80
2015,06,09,00,01,12.80
2015,06,09,00,02,12.80
2015,06,09,00,03,12.80
2015,06,09,00,04,12.70
2015,06,09,00,05,12.70
2015,06,09,00,06,12.70
2015,06,09,00,07,12.70
2015,06,09,00,08,12.70
2015,06,09,00,09,12.70
2015,06,09,00,10,12.70
2015,06,09,00,11,12.60
2015,06,09,00,12,12.60
2015,06,09,00,13,12.60
2015,06,09,00,14,12.60
2015,06,09,00,15,12.60
2015,06,09,00,16,12.60
2015,06,09,00,17,12.60
2015,06,09,00,18,12.60
2015,06,09,00,19,12.60
2015,06,09,00,20,12.60
2015,06,09,00,21,12.60
2015,06,09,00,22,12.60
2015,06,09,00,23,12.60
2015,06,09,00,24,12.60
2015,06,09,00,25,12.70
2015,06,09,00,26,12.70
2015,06,09,00,27,12.70
2015,06,09,00,28,12.70
2015,06,09,00,29,12.70
2015,06,09,00,30,12.70
2015,06,09,00,31,12.70
2015,06,09,00,32,12.80
2015,06,09,00,33,12.80
2015,06,09,00,34,12.80
2015,06,09,00,35,12.90
2015,06,09,00,36,12.90
2015,06,09,00,37,13.00
2015,06,09,00,38,13.00
2015,06,09,00,39,13.10
2015,06,09,00,40,13.10
2015,06,09,00,41,13.20
2015,06,09,00,42,13.20
2015,06,09,00,43,13.20
2015,06,09,00,44,13.30
2015,06,09,00,45,13.30
2015,06,09,00,46,13.30
2015,06,09,00,47,13.30
2015,06,09,00,48,13.30
2015,06,09,00,49,13.40
2015,06,09,00,50,13.40
2015,06,09,00,51,13.40
2015,06,09,00,52,13.40
2015,06,09,00,53,13.40
2015,06,09,00,54,13.40
2015,06,09,00,55,13.40
2015,06,09,00,56,13.40
2015,06,09,00,57,13.40
2015,06,09,00,58,13.40
2015,06,09,00,59,13.50
2015,06,09,01,00,13.50
2015,06,09,01,01,13.50
2015,06,09,01,02,13.60
2015,06,09,01,03,13.60
2015,06,09,01,04,13.60
2015,06,09,01,05,13.60
2015,06,09,01,06,13.60
2015,06,09,01,07,13.60
2015,06,09,01,08,13.60
2015,06,09,01,09,13.60
2015,06,09,01,10,13.60
2015,06,09,01,11,13.60
2015,06,09,01,12,13.60
2015,06,09,01,13,13.60
2015,06,09,01,14,13.60
2015,06,09,01,15,13.50
2015,06,09,01,16,13.40
2015,06,09,01,17,13.40
2015,06,09,01,18,13.30
2015,06,09,01,19,13.30
2015,06,09,01,20,13.20
2015,06,09,01,21,13.20
2015,06,09,01,22,13.10
2015,06,09,01,23,13.10
2015,06,09,01,24,13.10
2015,06,09,01,25,13.00
2015,06,09,01,26,13.00
2015,06,09,01,27,12.90
2015,06,09,01,28,12.90
2015,06,09,01,29,12.80
2015,06,09,01,30,12.80
2015,06,09,01,31,12.80
2015,06,09,01,32,12.70
2015,06,09,01,33,12.70
2015,06,09,01,34,12.70
2015,06,09,01,35,12.60
2015,06,09,01,36,12.60
2015,06,09,01,37,12.50
2015,06,09,01,38,12.50
2015,06,09,01,39,12.50
2015,06,09,01,40,12.40
2015,06,09,01,41,12.40
2015,06,09,01,42,12.30
2015,06,09,01,43,12.30
2015,06,09,01,44,12.30
2015,06,09,01,45,12.30
2015,06,09,01,46,12.20
2015,06,09,01,47,12.20
2015,06,09,01,48,12.20
2015,06,09,01,49,12.20
2015,06,09,01,50,12.10
2015,06,09,01,51,12.10
2015,06,09,01,52,12.10
2015,06,09,01,53,12.10
2015,06,09,01,54,12.00
2015,06,09,01,55,12.00
2015,06,09,01,56,12.00
2015,06,09,01,57,12.00
2015,06,09,01,58,11.90
2015,06,09,01,59,11.90
2015,06,09,02,00,11.90
2015,06,09,02,01,11.90
2015,06,09,02,02,11.90
2015,06,09,02,03,11.80
2015,06,09,02,04,11.80
2015,06,09,02,05,11.80
2015,06,09,02,06,11.80
2015,06,09,02,07,11.80
2015,06,09,02,08,11.80
2015,06,09,02,09,11.80
2015,06,09,02,10,11.70
2015,06,09,02,11,11.70
2015,06,09,02,12,11.70
2015,06,09,02,13,11.70
2015,06,09,02,14,11.70
2015,06,09,02,15,11.60
2015,06,09,02,16,11.60
2015,06,09,02,17,11.60
2015,06,09,02,18,11.60
2015,06,09,02,19,11.60
2015,06,09,02,20,11.50
2015,06,09,02,21,11.50
2015,06,09,02,22,11.50
2015,06,09,02,23,11.40
2015,06,09,02,24,11.40
2015,06,09,02,25,11.40
2015,06,09,02,26,11.40
2015,06,09,02,27,11.40
2015,06,09,02,28,11.40
2015,06,09,02,29,11.30
2015,06,09,02,30,11.30
2015,06,09,02,31,11.30
2015,06,09,02,32,11.30
2015,06,09,02,33,11.30
2015,06,09,02,34,11.30
2015,06,09,02,35,11.20
2015,06,09,02,36,11.20
2015,06,09,02,37,11.20
2015,06,09,02,38,11.20
2015,06,09,02,39,11.20
2015,06,09,02,40,11.20
2015,06,09,02,41,11.20
2015,06,09,02,42,11.20
2015,06,09,02,43,11.20
2015,06,09,02,44,11.20
2015,06,09,02,45,11.20
2015,06,09,02,46,11.20
2015,06,09,02,47,11.20
2015,06,09,02,48,11.20
2015,06,09,02,49,11.20
2015,06,09,02,50,11.20
2015,06,09,02,51,11.20
2015,06,09,02,52,11.20
2015,06,09,02,53,11.20
2015,06,09,02,54,11.20
2015,06,09,02,55,11.20
2015,06,09,02,56,11.20
2015,06,09,02,57,11.20
2015,06,09,02,58,11.20
2015,06,09,02,59,11.20
2015,06,09,03,00,11.20
2015,06,09,03,01,11.20
2015,06,09,03,02,11.20
2015,06,09,03,03,11.20
2015,06,09,03,04,11.10
2015,06,09,03,05,11.10
2015,06,09,03,06,11.10
2015,06,09,03,07,11.10
2015,06,09,03,08,11.10
2015,06,09,03,09,11.10
2015,06,09,03,10,11.10
2015,06,09,03,11,11.10
2015,06,09,03,12,11.10
2015,06,09,03,13,11.10
2015,06,09,03,14,11.10
2015,06,09,03,15,11.00
2015,06,09,03,16,11.00
2015,06,09,03,17,11.00
2015,06,09,03,18,11.00
2015,06,09,03,19,11.00
2015,06,09,03,20,11.00
2015,06,09,03,21,11.00
2015,06,09,03,22,11.00
2015,06,09,03,23,11.00
2015,06,09,03,24,11.00
2015,06,09,03,25,11.00
2015,06,09,03,26,10.90
2015,06,09,03,27,10.90
2015,06,09,03,28,10.90
2015,06,09,03,29,10.90
2015,06,09,03,30,10.90
2015,06,09,03,31,10.90
2015,06,09,03,32,10.90
2015,06,09,03,33,10.90
2015,06,09,03,34,10.90
2015,06,09,03,35,10.90
2015,06,09,03,36,10.80
2015,06,09,03,37,10.80
2015,06,09,03,38,10.80
2015,06,09,03,39,10.80
2015,06,09,03,40,10.80
2015,06,09,03,41,10.80
2015,06,09,03,42,10.80
2015,06,09,03,43,10.90
2015,06,09,03,44,10.90
2015,06,09,03,45,10.90
2015,06,09,03,46,10.90
2015,06,09,03,47,10.90
2015,06,09,03,48,11.00
2015,06,09,03,49,11.10
2015,06,09,03,50,11.10
2015,06,09,03,51,11.20
2015,06,09,03,52,11.20
2015,06,09,03,53,11.30
2015,06,09,03,54,11.30
2015,06,09,03,55,11.30
2015,06,09,03,56,11.30
2015,06,09,03,57,11.30
2015,06,09,03,58,11.30
2015,06,09,03,59,11.40
2015,06,09,04,00,11.40
2015,06,09,04,01,11.40
2015,06,09,04,02,11.50
2015,06,09,04,03,11.50
2015,06,09,04,04,11.50
2015,06,09,04,05,11.50
2015,06,09,04,06,11.60
2015,06,09,04,07,11.60
2015,06,09,04,08,11.50
2015,06,09,04,09,11.50
2015,06,09,04,10,11.50
2015,06,09,04,11,11.50
2015,06,09,04,12,11.50
2015,06,09,04,13,11.50
2015,06,09,04,14,11.40
2015,06,09,04,15,11.40
2015,06,09,04,16,11.40
2015,06,09,04,17,11.40
2015,06,09,04,18,11.30
2015,06,09,04,19,11.30
2015,06,09,04,20,11.30
2015,06,09,04,21,11.30
2015,06,09,04,22,11.30
2015,06,09,04,23,11.20
2015,06,09,04,24,11.20
2015,06,09,04,25,11.20
2015,06,09,04,26,11.20
2015,06,09,04,27,11.20
2015,06,09,04,28,11.10
2015,06,09,04,29,11.10
2015,06,09,04,30,11.10
2015,06,09,04,31,11.10
2015,06,09,04,32,11.00
2015,06,09,04,33,11.00
2015,06,09,04,34,11.00
2015,06,09,04,35,10.90
2015,06,09,04,36,10.90
2015,06,09,04,37,10.90
2015,06,09,04,38,10.90
2015,06,09,04,39,10.90
2015,06,09,04,40,10.90
2015,06,09,04,41,10.80
2015,06,09,04,42,10.80
2015,06,09,04,43,10.80
2015,06,09,04,44,10.80
2015,06,09,04,45,10.80
2015,06,09,04,46,10.70
2015,06,09,04,47,10.70
2015,06,09,04,48,10.70
2015,06,09,04,49,10.70
2015,06,09,04,50,10.70
2015,06,09,04,51,10.70
2015,06,09,04,52,10.70
2015,06,09,04,53,10.70
2015,06,09,04,54,10.70
2015,06,09,04,55,10.60
2015,06,09,04,56,10.60
2015,06,09,04,57,10.60
2015,06,09,04,58,10.60
2015,06,09,04,59,10.60
2015,06,09,05,00,10.60
2015,06,09,05,01,10.60
2015,06,09,05,02,10.50
2015,06,09,05,03,10.50
2015,06,09,05,04,10.50
2015,06,09,05,05,10.50
2015,06,09,05,06,10.50
2015,06,09,05,07,10.50
2015,06,09,05,08,10.40
2015,06,09,05,09,10.40
2015,06,09,05,10,10.40
2015,06,09,05,11,10.40
2015,06,09,05,12,10.40
2015,06,09,05,13,10.40
2015,06,09,05,14,10.40
2015,06,09,05,15,10.40
2015,06,09,05,16,10.40
2015,06,09,05,17,10.40
2015,06,09,05,18,10.40
2015,06,09,05,19,10.40
2015,06,09,05,20,10.40
2015,06,09,05,21,10.30
2015,06,09,05,22,10.30
2015,06,09,05,23,10.30
2015,06,09,05,24,10.30
2015,06,09,05,25,10.30
2015,06,09,05,26,10.30
2015,06,09,05,27,10.30
2015,06,09,05,28,10.30
2015,06,09,05,29,10.30
2015,06,09,05,30,10.30
2015,06,09,05,31,10.30
2015,06,09,05,32,10.20
2015,06,09,05,33,10.20
2015,06,09,05,34,10.20
2015,06,09,05,35,10.20
2015,06,09,05,36,10.20
2015,06,09,05,37,10.20
2015,06,09,05,38,10.20
2015,06,09,05,39,10.20
2015,06,09,05,40,10.20
2015,06,09,05,41,10.20
2015,06,09,05,42,10.20
2015,06,09,05,43,10.20
2015,06,09,05,44,10.10
2015,06,09,05,45,10.20
2015,06,09,05,46,10.20
2015,06,09,05,47,10.20
2015,06,09,05,48,10.20
2015,06,09,05,49,10.20
2015,06,09,05,50,10.20
2015,06,09,05,51,10.30
2015,06,09,05,52,10.30
2015,06,09,05,53,10.30
2015,06,09,05,54,10.30
2015,06,09,05,55,10.30
2015,06,09,05,56,10.40
2015,06,09,05,57,10.40
2015,06,09,05,58,10.40
2015,06,09,05,59,10.40
2015,06,09,06,00,10.40
2015,06,09,06,01,10.40
2015,06,09,06,02,10.40
2015,06,09,06,03,10.50
2015,06,09,06,04,10.50
2015,06,09,06,05,10.50
2015,06,09,06,06,10.60
2015,06,09,06,07,10.60
2015,06,09,06,08,10.60
2015,06,09,06,09,10.70
2015,06,09,06,10,10.70
2015,06,09,06,11,10.70
2015,06,09,06,12,10.70
2015,06,09,06,13,10.80
2015,06,09,06,14,10.80
2015,06,09,06,15,10.80
2015,06,09,06,16,10.90
2015,06,09,06,17,10.90
2015,06,09,06,18,10.90
2015,06,09,06,19,11.00
2015,06,09,06,20,11.00
2015,06,09,06,21,11.00
2015,06,09,06,22,11.10
2015,06,09,06,23,11.10
2015,06,09,06,24,11.10
2015,06,09,06,25,11.10
2015,06,09,06,26,11.10
2015,06,09,06,27,11.10
2015,06,09,06,28,11.10
2015,06,09,06,29,11.10
2015,06,09,06,30,11.20
2015,06,09,06,31,11.20
2015,06,09,06,32,11.20
2015,06,09,06,33,11.20
2015,06,09,06,34,11.20
2015,06,09,06,35,11.20
2015,06,09,06,36,11.20
2015,06,09,06,37,11.30
2015,06,09,06,38,11.30
2015,06,09,06,39,11.30
2015,06,09,06,40,11.30
2015,06,09,06,41,11.30
2015,06,09,06,42,11.30
2015,06,09,06,43,11.40
2015,06,09,06,44,11.40
2015,06,09,06,45,11.40
2015,06,09,06,46,11.40
2015,06,09,06,47,11.50
2015,06,09,06,48,11.50
2015,06,09,06,49,11.50
2015,06,09,06,50,11.60
2015,06,09,06,51,11.60
2015,06,09,06,52,11.70
2015,06,09,06,53,11.70
2015,06,09,06,54,11.80
2015,06,09,06,55,11.80
2015,06,09,06,56,11.90
2015,06,09,06,57,11.90
2015,06,09,06,58,11.90
2015,06,09,06,59,12.00
2015,06,09,07,00,12.10
2015,06,09,07,01,12.10
2015,06,09,07,02,12.20
2015,06,09,07,03,12.20
2015,06,09,07,04,12.30
2015,06,09,07,05,12.30
2015,06,09,07,06,12.40
2015,06,09,07,07,12.50
2015,06,09,07,08,12.60
2015,06,09,07,09,12.70
2015,06,09,07,10,12.80
2015,06,09,07,11,12.80
2015,06,09,07,12,12.90
2015,06,09,07,13,13.00
2015,06,09,07,14,13.10
2015,06,09,07,15,13.10
2015,06,09,07,16,13.20
2015,06,09,07,17,13.30
2015,06,09,07,18,13.40
2015,06,09,07,19,13.50
2015,06,09,07,20,13.50
2015,06,09,07,21,13.60
2015,06,09,07,22,13.70
2015,06,09,07,23,13.80
2015,06,09,07,24,13.90
2015,06,09,07,25,14.00
2015,06,09,07,26,14.10
2015,06,09,07,27,14.20
2015,06,09,07,28,14.30
2015,06,09,07,29,14.40
2015,06,09,07,30,14.50
2015,06,09,07,31,14.60
2015,06,09,07,32,14.70
2015,06,09,07,33,14.70
2015,06,09,07,34,14.80
2015,06,09,07,35,14.80
2015,06,09,07,36,14.90
2015,06,09,07,37,14.90
2015,06,09,07,38,14.90
2015,06,09,07,39,15.00
2015,06,09,07,40,15.00
2015,06,09,07,41,15.10
2015,06,09,07,42,15.10
2015,06,09,07,43,15.10
2015,06,09,07,44,15.10
2015,06,09,07,45,15.10
2015,06,09,07,46,15.10
2015,06,09,07,47,15.20
2015,06,09,07,48,15.20
2015,06,09,07,49,15.20
2015,06,09,07,50,15.20
2015,06,09,07,51,15.30
2015,06,09,07,52,15.30
2015,06,09,07,53,15.30
2015,06,09,07,54,15.30
2015,06,09,07,55,15.40
2015,06,09,07,56,15.40
2015,06,09,07,57,15.40
2015,06,09,07,58,15.50
2015,06,09,07,59,15.50
2015,06,09,08,00,15.50
2015,06,09,08,01,15.50
2015,06,09,08,02,15.60
2015,06,09,08,03,15.60
2015,06,09,08,04,15.60
2015,06,09,08,05,15.70
2015,06,09,08,06,15.70
2015,06,09,08,07,15.70
2015,06,09,08,08,15.70
2015,06,09,08,09,15.70
2015,06,09,08,10,15.70
2015,06,09,08,11,15.70
2015,06,09,08,12,15.70
2015,06,09,08,13,15.70
2015,06,09,08,14,15.70
2015,06,09,08,15,15.70
2015,06,09,08,16,15.60
2015,06,09,08,17,15.60
2015,06,09,08,18,15.60
2015,06,09,08,19,15.60
2015,06,09,08,20,15.60
2015,06,09,08,21,15.60
2015,06,09,08,22,15.70
2015,06,09,08,23,15.70
2015,06,09,08,24,15.70
2015,06,09,08,25,15.80
2015,06,09,08,26,15.90
2015,06,09,08,27,15.90
2015,06,09,08,28,16.00
2015,06,09,08,29,16.10
2015,06,09,08,30,16.10
2015,06,09,08,31,16.20
2015,06,09,08,32,16.30
2015,06,09,08,33,16.40
2015,06,09,08,34,16.50
2015,06,09,08,35,16.70
2015,06,09,08,36,16.80
2015,06,09,08,37,16.90
2015,06,09,08,38,17.00
2015,06,09,08,39,17.10
2015,06,09,08,40,17.20
2015,06,09,08,41,17.20
2015,06,09,08,42,17.30
2015,06,09,08,43,17.40
2015,06,09,08,44,17.50
2015,06,09,08,45,17.50
2015,06,09,08,46,17.70
2015,06,09,08,47,17.80
2015,06,09,08,48,17.90
2015,06,09,08,49,17.90
2015,06,09,08,50,17.90
2015,06,09,08,51,18.00
2015,06,09,08,52,18.00
2015,06,09,08,53,18.10
2015,06,09,08,54,18.10
2015,06,09,08,55,18.10
2015,06,09,08,56,18.20
2015,06,09,08,57,18.20
2015,06,09,08,58,18.30
2015,06,09,08,59,18.40
2015,06,09,09,00,18.40
2015,06,09,09,01,18.50
2015,06,09,09,02,18.60
2015,06,09,09,03,18.60
2015,06,09,09,04,18.70
2015,06,09,09,05,18.70
2015,06,09,09,06,18.70
2015,06,09,09,07,18.80
2015,06,09,09,08,18.80
2015,06,09,09,09,18.90
2015,06,09,09,10,18.90
2015,06,09,09,11,19.00
2015,06,09,09,12,19.10
2015,06,09,09,13,19.20
2015,06,09,09,14,19.30
2015,06,09,09,15,19.40
2015,06,09,09,16,19.50
2015,06,09,09,17,19.60
2015,06,09,09,18,19.70
2015,06,09,09,19,19.80
2015,06,09,09,20,19.90
2015,06,09,09,21,19.90
2015,06,09,09,22,19.90
2015,06,09,09,23,19.90
2015,06,09,09,24,19.90
2015,06,09,09,25,19.90
2015,06,09,09,26,19.90
2015,06,09,09,27,19.90
2015,06,09,09,28,19.90
2015,06,09,09,29,19.90
2015,06,09,09,30,19.90
2015,06,09,09,31,19.90
2015,06,09,09,32,19.90
2015,06,09,09,33,19.80
2015,06,09,09,34,19.80
2015,06,09,09,35,19.70
2015,06,09,09,36,19.70
2015,06,09,09,37,19.70
2015,06,09,09,38,19.70
2015,06,09,09,39,19.70
2015,06,09,09,40,19.70
2015,06,09,09,41,19.60
2015,06,09,09,42,19.60
2015,06,09,09,43,19.60
2015,06,09,09,44,19.60
2015,06,09,09,45,19.60
2015,06,09,09,46,19.70
2015,06,09,09,47,19.70
2015,06,09,09,48,19.80
2015,06,09,09,49,19.90
2015,06,09,09,50,20.00
2015,06,09,09,51,20.10
2015,06,09,09,52,20.00
2015,06,09,09,53,20.00
2015,06,09,09,54,20.00
2015,06,09,09,55,20.00
2015,06,09,09,56,20.10
2015,06,09,09,57,20.10
2015,06,09,09,58,20.10
2015,06,09,09,59,20.20
2015,06,09,10,00,20.20
2015,06,09,10,01,20.20
2015,06,09,10,02,20.30
2015,06,09,10,03,20.30
2015,06,09,10,04,20.40
2015,06,09,10,05,20.40
2015,06,09,10,06,20.40
2015,06,09,10,07,20.50
2015,06,09,10,08,20.50
2015,06,09,10,09,20.50
2015,06,09,10,10,20.50
2015,06,09,10,11,20.50
2015,06,09,10,12,20.50
2015,06,09,10,13,20.50
2015,06,09,10,14,20.50
2015,06,09,10,15,20.50
2015,06,09,10,16,20.60
2015,06,09,10,17,20.60
2015,06,09,10,18,20.70
2015,06,09,10,19,20.70
2015,06,09,10,20,20.70
2015,06,09,10,21,20.70
2015,06,09,10,22,20.70
2015,06,09,10,23,20.80
2015,06,09,10,24,20.80
2015,06,09,10,25,20.80
2015,06,09,10,26,20.80
2015,06,09,10,27,20.70
2015,06,09,10,28,20.60
2015,06,09,10,29,20.60
2015,06,09,10,30,20.50
2015,06,09,10,31,20.50
2015,06,09,10,32,20.50
2015,06,09,10,33,20.50
2015,06,09,10,34,20.50
2015,06,09,10,35,20.50
2015,06,09,10,36,20.50
2015,06,09,10,37,20.60
2015,06,09,10,38,20.60
2015,06,09,10,39,20.70
2015,06,09,10,40,20.70
2015,06,09,10,41,20.80
2015,06,09,10,42,20.80
2015,06,09,10,43,20.80
2015,06,09,10,44,20.80
2015,06,09,10,45,20.70
2015,06,09,10,46,20.80
2015,06,09,10,47,20.80
2015,06,09,10,48,20.80
2015,06,09,10,49,20.70
2015,06,09,10,50,20.60
2015,06,09,10,51,20.60
2015,06,09,10,52,20.50
2015,06,09,10,53,20.40
2015,06,09,10,54,20.40
2015,06,09,10,55,20.50
2015,06,09,10,56,20.50
2015,06,09,10,57,20.60
2015,06,09,10,58,20.60
2015,06,09,10,59,20.70
2015,06,09,11,00,20.70
2015,06,09,11,01,20.70
2015,06,09,11,02,20.70
2015,06,09,11,03,20.70
2015,06,09,11,04,20.80
2015,06,09,11,05,20.80
2015,06,09,11,06,20.80
2015,06,09,11,07,20.70
2015,06,09,11,08,20.70
2015,06,09,11,09,20.80
2015,06,09,11,10,20.80
2015,06,09,11,11,20.90
2015,06,09,11,12,21.00
2015,06,09,11,13,21.10
2015,06,09,11,14,21.20
2015,06,09,11,15,21.40
2015,06,09,11,16,21.50
2015,06,09,11,17,21.60
2015,06,09,11,18,21.60
2015,06,09,11,19,21.70
2015,06,09,11,20,21.70
2015,06,09,11,21,21.70
2015,06,09,11,22,21.60
2015,06,09,11,23,21.50
2015,06,09,11,24,21.40
2015,06,09,11,25,21.30
2015,06,09,11,26,21.30
2015,06,09,11,27,21.30
2015,06,09,11,28,21.30
2015,06,09,11,29,21.30
2015,06,09,11,30,21.30
2015,06,09,11,31,21.30
2015,06,09,11,32,21.30
2015,06,09,11,33,21.30
2015,06,09,11,34,21.40
2015,06,09,11,35,21.40
2015,06,09,11,36,21.50
2015,06,09,11,37,21.50
2015,06,09,11,38,21.60
2015,06,09,11,39,21.70
2015,06,09,11,40,21.80
2015,06,09,11,41,21.90
2015,06,09,11,42,21.90
2015,06,09,11,43,22.00
2015,06,09,11,44,22.00
2015,06,09,11,45,22.00
2015,06,09,11,46,22.10
2015,06,09,11,47,22.10
2015,06,09,11,48,22.20
2015,06,09,11,49,22.20
2015,06,09,11,50,22.30
2015,06,09,11,51,22.30
2015,06,09,11,52,22.30
2015,06,09,11,53,22.30
2015,06,09,11,54,22.30
2015,06,09,11,55,22.20
2015,06,09,11,56,22.10
2015,06,09,11,57,22.10
2015,06,09,11,58,22.10
2015,06,09,11,59,22.10
2015,06,09,12,00,22.10
2015,06,09,12,01,22.10
2015,06,09,12,02,22.10
2015,06,09,12,03,22.00
2015,06,09,12,04,22.00
2015,06,09,12,05,22.00
2015,06,09,12,06,22.00
2015,06,09,12,07,22.10
2015,06,09,12,08,22.10
2015,06,09,12,09,22.10
2015,06,09,12,10,22.10
2015,06,09,12,11,22.10
2015,06,09,12,12,22.10
2015,06,09,12,13,22.10
2015,06,09,12,14,22.20
2015,06,09,12,15,22.30
2015,06,09,12,16,22.40
2015,06,09,12,17,22.50
2015,06,09,12,18,22.50
2015,06,09,12,19,22.50
2015,06,09,12,20,22.50
2015,06,09,12,21,22.60
2015,06,09,12,22,22.60
2015,06,09,12,23,22.60
2015,06,09,12,24,22.50
2015,06,09,12,25,22.50
2015,06,09,12,26,22.40
2015,06,09,12,27,22.40
2015,06,09,12,28,22.30
2015,06,09,12,29,22.30
2015,06,09,12,30,22.20
2015,06,09,12,31,22.20
2015,06,09,12,32,22.20
2015,06,09,12,33,22.20
2015,06,09,12,34,22.10
2015,06,09,12,35,22.10
2015,06,09,12,36,22.10
2015,06,09,12,37,22.10
2015,06,09,12,38,22.00
2015,06,09,12,39,22.00
2015,06,09,12,40,21.90
2015,06,09,12,41,21.90
2015,06,09,12,42,21.90
2015,06,09,12,43,21.90
2015,06,09,12,44,22.00
2015,06,09,12,45,22.10
2015,06,09,12,46,22.10
2015,06,09,12,47,22.20
2015,06,09,12,48,22.20
2015,06,09,12,49,22.20
2015,06,09,12,50,22.30
2015,06,09,12,51,22.40
2015,06,09,12,52,22.50
2015,06,09,12,53,22.60
2015,06,09,12,54,22.70
2015,06,09,12,55,22.80
2015,06,09,12,56,22.90
2015,06,09,12,57,22.90
2015,06,09,12,58,22.90
2015,06,09,12,59,23.00
2015,06,09,13,00,23.00
2015,06,09,13,01,23.10
2015,06,09,13,02,23.20
2015,06,09,13,03,23.20
2015,06,09,13,04,23.30
2015,06,09,13,05,23.30
2015,06,09,13,06,23.30
2015,06,09,13,07,23.30
2015,06,09,13,08,23.30
2015,06,09,13,09,23.30
2015,06,09,13,10,23.30
2015,06,09,13,11,23.40
2015,06,09,13,12,23.40
2015,06,09,13,13,23.40
2015,06,09,13,14,23.40
2015,06,09,13,15,23.50
2015,06,09,13,16,23.60
2015,06,09,13,17,23.60
2015,06,09,13,18,23.70
2015,06,09,13,19,23.70
2015,06,09,13,20,23.70
2015,06,09,13,21,23.80
2015,06,09,13,22,23.80
2015,06,09,13,23,23.90
2015,06,09,13,24,23.90
2015,06,09,13,25,23.90
2015,06,09,13,26,24.00
2015,06,09,13,27,24.10
2015,06,09,13,28,24.20
2015,06,09,13,29,24.30
2015,06,09,13,30,24.40
2015,06,09,13,31,24.50
2015,06,09,13,32,24.50
2015,06,09,13,33,24.60
2015,06,09,13,34,24.60
2015,06,09,13,35,24.60
2015,06,09,13,36,24.60
2015,06,09,13,37,24.60
2015,06,09,13,38,24.60
2015,06,09,13,39,24.60
2015,06,09,13,40,24.60
2015,06,09,13,41,24.50
2015,06,09,13,42,24.40
2015,06,09,13,43,24.30
2015,06,09,13,44,24.20
2015,06,09,13,45,24.10
2015,06,09,13,46,24.20
2015,06,09,13,47,24.20
2015,06,09,13,48,24.20
2015,06,09,13,49,24.30
2015,06,09,13,50,24.20
2015,06,09,13,51,24.20
2015,06,09,13,52,24.10
2015,06,09,13,53,24.00
2015,06,09,13,54,24.00
2015,06,09,13,55,23.90
2015,06,09,13,56,23.80
2015,06,09,13,57,23.80
2015,06,09,13,58,23.80
2015,06,09,13,59,23.70
2015,06,09,14,00,23.70
2015,06,09,14,01,23.70
2015,06,09,14,02,23.70
2015,06,09,14,03,23.70
2015,06,09,14,04,23.70
2015,06,09,14,05,23.80
2015,06,09,14,06,23.80
2015,06,09,14,07,23.90
2015,06,09,14,08,23.90
2015,06,09,14,09,24.00
2015,06,09,14,10,24.00
2015,06,09,14,11,24.00
2015,06,09,14,12,24.00
2015,06,09,14,13,24.10
2015,06,09,14,14,24.00
2015,06,09,14,15,24.10
2015,06,09,14,16,24.10
2015,06,09,14,17,24.20
2015,06,09,14,18,24.20
2015,06,09,14,19,24.20
2015,06,09,14,20,24.20
2015,06,09,14,21,24.10
2015,06,09,14,22,24.10
2015,06,09,14,23,24.20
2015,06,09,14,24,24.20
2015,06,09,14,25,24.30
2015,06,09,14,26,24.40
2015,06,09,14,27,24.50
2015,06,09,14,28,24.50
2015,06,09,14,29,24.50
2015,06,09,14,30,24.40
2015,06,09,14,31,24.30
2015,06,09,14,32,24.30
2015,06,09,14,33,24.30
2015,06,09,14,34,24.30
2015,06,09,14,35,24.30
2015,06,09,14,36,24.30
2015,06,09,14,37,24.30
2015,06,09,14,38,24.40
2015,06,09,14,39,24.40
2015,06,09,14,40,24.40
2015,06,09,14,41,24.40
2015,06,09,14,42,24.30
2015,06,09,14,43,24.30
2015,06,09,14,44,24.30
2015,06,09,14,45,24.30
2015,06,09,14,46,24.40
2015,06,09,14,47,24.30
2015,06,09,14,48,24.40
2015,06,09,14,49,24.30
2015,06,09,14,50,24.20
2015,06,09,14,51,24.00
2015,06,09,14,52,23.80
2015,06,09,14,53,23.60
2015,06,09,14,54,23.50
2015,06,09,14,55,23.40
2015,06,09,14,56,23.30
2015,06,09,14,57,23.40
2015,06,09,14,58,23.40
2015,06,09,14,59,23.50
2015,06,09,15,00,23.50
2015,06,09,15,01,23.60
2015,06,09,15,02,23.60
2015,06,09,15,03,23.70
2015,06,09,15,04,23.80
2015,06,09,15,05,23.90
2015,06,09,15,06,23.90
2015,06,09,15,07,24.00
2015,06,09,15,08,24.00
2015,06,09,15,09,24.00
2015,06,09,15,10,23.90
2015,06,09,15,11,23.80
2015,06,09,15,12,23.90
2015,06,09,15,13,23.90
2015,06,09,15,14,24.00
2015,06,09,15,15,24.00
2015,06,09,15,16,24.10
2015,06,09,15,17,24.20
2015,06,09,15,18,24.30
2015,06,09,15,19,24.50
2015,06,09,15,20,24.50
2015,06,09,15,21,24.40
2015,06,09,15,22,24.40
2015,06,09,15,23,24.40
2015,06,09,15,24,24.40
2015,06,09,15,25,24.40
2015,06,09,15,26,24.30
2015,06,09,15,27,24.30
2015,06,09,15,28,24.30
2015,06,09,15,29,24.30
2015,06,09,15,30,24.30
2015,06,09,15,31,24.40
2015,06,09,15,32,24.40
2015,06,09,15,33,24.50
2015,06,09,15,34,24.60
2015,06,09,15,35,24.60
2015,06,09,15,36,24.60
2015,06,09,15,37,24.60
2015,06,09,15,38,24.60
2015,06,09,15,39,24.60
2015,06,09,15,40,24.60
2015,06,09,15,41,24.70
2015,06,09,15,42,24.70
2015,06,09,15,43,24.60
2015,06,09,15,44,24.60
2015,06,09,15,45,24.60
2015,06,09,15,46,24.50
2015,06,09,15,47,24.50
2015,06,09,15,48,24.50
2015,06,09,15,49,24.40
2015,06,09,15,50,24.40
2015,06,09,15,51,24.40
2015,06,09,15,52,24.50
2015,06,09,15,53,24.50
2015,06,09,15,54,24.60
2015,06,09,15,55,24.70
2015,06,09,15,56,24.80
2015,06,09,15,57,24.80
2015,06,09,15,58,24.80
2015,06,09,15,59,24.70
2015,06,09,16,00,24.50
2015,06,09,16,01,24.40
2015,06,09,16,02,24.30
2015,06,09,16,03,24.30
2015,06,09,16,04,24.20
2015,06,09,16,05,24.10
2015,06,09,16,06,24.10
2015,06,09,16,07,24.10
2015,06,09,16,08,24.10
2015,06,09,16,09,24.20
2015,06,09,16,10,24.20
2015,06,09,16,11,24.30
2015,06,09,16,12,24.30
2015,06,09,16,13,24.30
2015,06,09,16,14,24.30
2015,06,09,16,15,24.40
2015,06,09,16,16,24.50
2015,06,09,16,17,24.60
2015,06,09,16,18,24.60
2015,06,09,16,19,24.60
2015,06,09,16,20,24.70
2015,06,09,16,21,24.70
2015,06,09,16,22,24.70
2015,06,09,16,23,24.70
2015,06,09,16,24,24.70
2015,06,09,16,25,24.60
2015,06,09,16,26,24.60
2015,06,09,16,27,24.60
2015,06,09,16,28,24.60
2015,06,09,16,29,24.60
2015,06,09,16,30,24.60
2015,06,09,16,31,24.60
2015,06,09,16,32,24.60
2015,06,09,16,33,24.60
2015,06,09,16,34,24.50
2015,06,09,16,35,24.50
2015,06,09,16,36,24.60
2015,06,09,16,37,24.60
2015,06,09,16,38,24.50
2015,06,09,16,39,24.30
2015,06,09,16,40,24.30
2015,06,09,16,41,24.20
2015,06,09,16,42,24.20
2015,06,09,16,43,24.30
2015,06,09,16,44,24.30
2015,06,09,16,45,24.30
2015,06,09,16,46,24.30
2015,06,09,16,47,24.30
2015,06,09,16,48,24.20
2015,06,09,16,49,24.20
2015,06,09,16,50,24.10
2015,06,09,16,51,24.00
2015,06,09,16,52,24.00
2015,06,09,16,53,23.90
2015,06,09,16,54,23.80
2015,06,09,16,55,23.80
2015,06,09,16,56,23.80
2015,06,09,16,57,23.70
2015,06,09,16,58,23.50
2015,06,09,16,59,23.40
2015,06,09,17,00,23.30
2015,06,09,17,01,23.20
2015,06,09,17,02,23.20
2015,06,09,17,03,23.10
2015,06,09,17,04,23.10
2015,06,09,17,05,23.00
2015,06,09,17,06,22.90
2015,06,09,17,07,22.80
2015,06,09,17,08,22.70
2015,06,09,17,09,22.80
2015,06,09,17,10,22.80
2015,06,09,17,11,22.90
2015,06,09,17,12,23.00
2015,06,09,17,13,23.10
2015,06,09,17,14,23.20
2015,06,09,17,15,23.30
2015,06,09,17,16,23.40
2015,06,09,17,17,23.40
2015,06,09,17,18,23.30
2015,06,09,17,19,23.20